Regional Weather Roundup
Issued by NWS Newport/Morehead, NC

Current Version | Previous Version | Graphics & Text | Print | Product List | Glossary On
Versions: 1 2 3 4 5 6 7 8 9 10 11 12 13 14 15 16 17 18 19 20 21 22 23 24 25 26 27 28 29 30 31 32 33 34 35 36 37 38 39 40 41 42 43 44 45 46 47 48 49 50
000 ASUS42 KMHX 280913 RWRMHX WEATHER ROUNDUP FOR EASTERN NORTH CAROLINA NATIONAL WEATHER SERVICE NEWPORT/MOREHEAD CITY NC 500 AM EDT SUN AUG 28 2016 NOTE: "FAIR" INDICATES FEW OR NO CLOUDS BELOW 12,000 FEET WITH NO SIGNIFICANT WEATHER AND/OR OBSTRUCTIONS TO VISIBILITY NCZ015>017-031-032-045>047-102-103-281000- NORTH COAST CITY SKY/WX TMP DP RH WIND PRES REMARKS EDENTON PTCLDY N/A N/A N/A N6 30.13S HAZE ELIZABETH CITY MOCLDY 78 75 90 NE10 30.13R KITTY HAWK MOSUNNY 79 79 100 NE3 30.10S MANTEO MOCLDY 79 78 99 E6 30.11S $$ NCZ045>047-081-094-103-104-281000- CENTRAL COAST CITY SKY/WX TMP DP RH WIND PRES REMARKS FRISCO CLOUDY 79 73 82 E3 30.09S $$ NCZ095-097-098-100-101-281000- SOUTHERN COAST CITY SKY/WX TMP DP RH WIND PRES REMARKS BEAUFORT CLOUDY 77 75 93 NE6 30.09S CEDAR ISLAND NOT AVBL JACKSONVILLE MOCLDY 77 74 90 N8 30.10S PINEY ISLAND NOT AVBL WILMINGTON PTCLDY 76 74 93 N6 30.09S $$ NCZ011>013-027>030-043-044-078>080-089-090>093-098-281000- COASTAL PLAIN CITY SKY/WX TMP DP RH WIND PRES REMARKS AHOSKIE MOCLDY 70 69 98 CALM 30.15S CLINTON CLEAR 76 75 99 CALM 30.13S ELIZABETHTOWN CLEAR 73 73 100 CALM 30.11S FOG GOLDSBORO MOCLDY 75 75 100 N5 30.13R GREENVILLE CLOUDY 73 73 100 N5 30.15S HAVELOCK MOCLDY 79 75 87 NE9 30.11S KENANSVILLE MOCLDY 73 73 100 NE3 30.13S FOG KINSTON CLOUDY 74 73 96 N5 30.14S FOG NEW BERN CLEAR 76 74 93 N7 30.12S RICHLANDS CLOUDY 75 75 100 N6 30.12S ROCKY MOUNT MOCLDY 70 70 100 N5 30.15S WASHINGTON FOG 73 72 98 N3 30.13S VSB 1/2 WHITEVILLE CLEAR 75 73 96 CALM 30.10S FOG $$ AMZ130-135-150-152-154-156-158-170-250-252-270-ANZ085-086-088-633-658-670-281000- MARINE OBSERVATIONS STATION/POSITION TIME TEMP WIND PRES WAVE SWELL AIR SEA DIR/SP/G HT/PER HT/PER (UTC) (F) (DEG/KT/KT) (MB) (FT/S) (FT/S) CHESAPEAKE LIGHT NOT AVBL 64 E VA BEACH 0850 80 81 80/ 14/ 17 1019.0 4/ 9 2/ 9 DUCK 0800 80 79 50/ 12/ 15 1019.0 2 E DUCK 0811 79 N/A 4/ 5 OREGON INLET 0800 80 79 40/ 5/ 8 1019.1 13E OREGON INLT 0900 82 N/A 3/ 9 3/ 9 HATTERAS CG 0800 79 84 70/ 2/ 3 1018.7 DIAMOND BUOY 0850 81 84 80/ 6/ 6 1018.6 3/ 9 3/ 9 CAPE LOOKOUT 0900 81 70/ 9/ 11 1018.5 BEAUFORT LAB 0800 77 82 30/ 5/ 6 1018.3 30 SE NEW RVR IN NOT AVBL 30 SE NEW RVR IN 0825 84 N/A 3/ 8 27 SE WRIGHTSVLE 0808 82 84 80/ 8/ 12 1018.5 5 SE WRIGHTSVLE NOT AVBL 225 S CAPE HAT 0850 82 84 60/ 12/ 14 1016.7 4/ 8 3/ 8 41 SE CHARLESTON 0850 83 84 50/ 14/ 16 1016.9 4/ 9 3/ 9 $$

USA.gov is the U.S. government's official web portal to all federal, state and local government web resources and services.